GW3044 Weather Reports


Display with metric or nautical units.
time (UTC)temp
F
wind
direction
speed
MPH
gust
MPH
rain 1hr
in
rain 24hr
in
rain mn
in
humidity
%
barometer
mb
20260505124731 57 339 2.0 5.0 0.00 0.11 0.11 90 978.7
20260505124228 57 32 2.0 9.0 0.00 0.11 0.11 90 978.7
20260505123723 57 30 3.0 8.0 0.00 0.11 0.11 90 978.7
20260505123220 57 348 2.0 5.0 0.00 0.11 0.11 91 978.5
20260505122717 57 10 1.0 8.0 0.00 0.11 0.11 90 978.3
20260505122214 57 87 1.0 9.0 0.00 0.11 0.11 91 977.9
20260505121710 57 47 3.0 9.0 0.00 0.11 0.11 91 978.1
20260505121207 57 95 4.0 6.0 0.00 0.11 0.11 93 977.8
20260505120703 58 48 0.0 8.0 0.00 0.11 0.11 93 978.1
20260505120159 58 7 3.0 6.0 0.00 0.11 0.11 93 978.3
20260505115653 58 24 2.0 5.0 0.00 0.11 0.11 93 978.2
20260505115151 58 354 3.0 5.0 0.00 0.11 0.11 94 978.0
20260505114648 58 30 2.0 5.0 0.00 0.11 0.11 95 978.2
20260505114144 58 87 2.0 4.0 0.00 0.11 0.11 94 978.1
20260505113641 58 65 0.0 3.0 0.00 0.11 0.11 94 978.1
20260505113137 59 73 2.0 4.0 0.00 0.11 0.11 95 977.9
20260505112633 59 6 1.0 6.0 0.00 0.11 0.11 95 977.6
20260505112132 59 16 3.0 5.0 0.05 0.11 0.11 94 977.9
20260505111625 59 347 3.0 9.0 0.02 0.10 0.10 94 977.2
20260505111121 60 10 5.0 8.0 0.02 0.10 0.10 94 977.3
20260505110618 60 44 2.0 4.0 0.02 0.10 0.10 94 978.0
20260505110115 60 66 2.0 4.0 0.00 0.09 0.09 94 978.3
20260505102051 60 355 2.0 3.0 0.02 0.09 0.09 93 977.8
20260505101549 60 337 4.0 7.0 0.02 0.09 0.09 93 977.5
20260505101045 60 336 5.0 8.0 0.02 0.09 0.09 93 977.5
20260505100542 59 344 2.0 9.0 0.00 0.09 0.09 94 977.6
20260505100039 59 359 2.0 3.0 0.00 0.09 0.09 94 977.4
20260505095535 60 331 2.0 2.0 0.00 0.09 0.09 93 976.8
20260505095031 60 21 1.0 2.0 0.02 0.09 0.09 92 976.8
20260505094528 60 141 0.0 0.0 0.02 0.09 0.09 91 976.7
20260505094024 61 202 0.0 2.0 0.00 0.08 0.08 90 976.7
20260505093521 60 259 2.0 2.0 0.00 0.08 0.08 90 976.8
20260505093018 61 54 0.0 3.0 0.00 0.08 0.08 87 976.6
20260505092516 62 28 0.0 5.0 0.00 0.08 0.08 85 976.5
20260505092014 61 252 1.0 6.0 0.00 0.08 0.08 86 976.3
20260505091511 60 176 2.0 6.0 0.00 0.08 0.08 90 976.5
20260505091009 60 179 2.0 8.0 0.00 0.08 0.08 93 975.6
20260505090506 60 186 3.0 12.0 0.02 0.08 0.08 95 974.9
20260505090004 60 125 5.0 10.0 0.00 0.08 0.08 95 974.8
20260505085502 60 169 3.0 10.0 0.02 0.08 0.08 96 975.0
20260505084959 60 192 3.0 11.0 0.07 0.08 0.08 96 975.6
20260505084458 60 187 2.0 12.0 0.09 0.07 0.07 96 975.9
20260505083955 61 161 2.0 5.0 0.09 0.07 0.07 96 977.0
20260505083452 61 97 2.0 3.0 0.07 0.06 0.06 95 977.7
20260505082948 61 46 2.0 6.0 0.05 0.05 0.05 94 977.7
20260505082444 61 322 4.0 8.0 0.05 0.05 0.05 94 977.6
20260505081942 61 341 2.0 5.0 0.02 0.04 0.04 94 977.6
20260505081438 61 224 5.0 12.0 0.02 0.04 0.04 94 977.7
20260505080935 61 198 3.0 8.0 0.05 0.04 0.04 93 977.6
20260505080431 62 218 3.0 8.0 0.07 0.03 0.03 92 977.4
20260505075926 62 241 4.0 11.0 0.07 0.02 0.02 90 977.1
20260505075424 62 223 8.0 12.0 0.09 0.02 0.02 88 977.2
20260505074921 63 244 4.0 9.0 0.05 0.01 0.01 85 977.1
20260505074418 64 343 3.0 7.0 0.02 0.00 0.00 83 977.2
20260505073915 64 209 3.0 9.0 0.00 0.00 0.00 81 977.5
20260505073413 64 298 2.0 8.0 0.00 0.00 0.00 80 977.3
20260505072910 64 205 2.0 5.0 0.00 0.00 0.00 79 977.3
20260505072406 64 131 1.0 6.0 0.00 0.00 0.00 78 977.3
20260505071902 65 137 0.0 3.0 0.00 0.00 0.00 76 977.1
20260505071358 65 263 2.0 4.0 0.00 0.00 0.00 76 977.3
20260505070857 65 235 0.0 5.0 0.00 0.00 0.00 75 977.3
20260505070353 65 189 2.0 8.0 0.00 0.00 0.00 75 977.2
20260505065848 65 190 0.0 9.0 0.00 0.00 0.00 75 976.8
20260505065345 65 191 2.0 7.0 0.00 0.00 0.00 75 977.1
20260505064842 65 182 1.0 6.0 0.00 0.00 0.00 75 977.1
20260505064339 65 230 3.0 4.0 0.00 0.00 0.00 75 977.1
20260505063838 65 186 2.0 5.0 0.00 0.00 0.00 74 977.4
20260505063333 65 190 2.0 5.0 0.00 0.00 0.00 75 977.5
20260505062830 65 178 2.0 4.0 0.00 0.00 0.00 74 977.7
20260505062327 65 161 3.0 6.0 0.00 0.00 0.00 75 977.8
20260505061824 65 209 2.0 4.0 0.00 0.00 0.00 75 977.7
20260505061322 65 186 2.0 5.0 0.00 0.00 0.00 74 977.8
20260505060820 65 159 1.0 4.0 0.00 0.00 0.00 75 977.9
20260505060316 65 226 2.0 4.0 0.00 0.00 0.00 75 977.8
20260505055812 65 106 1.0 4.0 0.00 0.00 0.00 75 977.8
20260505055308 65 179 1.0 5.0 0.00 0.00 0.00 74 977.4
20260505054806 65 129 2.0 4.0 0.00 0.00 0.00 74 977.7
20260505054303 65 186 3.0 6.0 0.00 0.00 0.00 74 977.6
20260505053801 65 126 1.0 3.0 0.00 0.00 0.00 74 977.5
20260505053258 65 141 1.0 7.0 0.00 0.00 0.00 74 977.5
20260505052755 65 117 2.0 4.0 0.00 0.00 0.00 74 977.7
20260505052252 65 125 3.0 6.0 0.00 0.00 0.00 74 977.4
20260505051748 65 141 4.0 7.0 0.00 0.00 0.00 74 977.5
20260505051246 65 131 5.0 8.0 0.00 0.00 0.00 73 977.6
20260505050744 65 154 1.0 6.0 0.00 0.00 0.00 73 977.9
20260505050243 65 164 1.0 5.0 0.00 0.00 0.00 73 977.6
20260505041712 66 149 1.0 4.0 0.00 0.00 0.00 71 978.3
20260505041209 66 225 0.0 3.0 0.00 0.00 0.00 71 978.5
20260505040707 66 132 1.0 3.0 0.00 0.00 0.00 70 978.4
20260505040204 67 139 1.0 7.0 0.00 0.00 0.00 70 978.6
20260505035700 67 142 0.0 4.0 0.00 0.00 0.00 70 978.5
20260505035156 67 100 0.0 3.0 0.00 0.00 0.00 70 978.6
20260505034653 67 193 0.0 4.0 0.00 0.00 0.00 70 978.6
20260505034150 67 201 2.0 2.0 0.00 0.00 0.00 70 978.5
20260505033646 67 89 0.0 2.0 0.00 0.00 0.00 69 978.6
20260505033145 67 91 0.0 2.0 0.00 0.00 0.00 69 978.7
20260505032642 67 107 0.0 1.0 0.00 0.00 0.00 70 978.7
20260505032133 68 143 0.0 3.0 0.00 0.00 0.00 69 978.5
20260505031630 68 217 0.0 2.0 0.00 0.00 0.00 68 978.5
20260505031126 68 89 0.0 3.0 0.00 0.00 0.00 68 978.8
20260505030624 68 282 0.0 3.0 0.00 0.00 0.00 68 978.6
20260505030119 68 222 1.0 3.0 0.00 0.00 0.00 67 978.6
20260505025615 68 61 2.0 3.0 0.00 0.00 0.00 67 978.5
20260505025114 69 226 4.0 5.0 0.00 0.00 0.00 66 978.6
20260505024611 69 199 3.0 5.0 0.00 0.00 0.00 66 978.6
20260505024108 69 200 2.0 6.0 0.00 0.00 0.00 65 978.4
20260505023606 69 239 0.0 3.0 0.00 0.00 0.00 66 978.6
20260505023103 69 148 1.0 7.0 0.00 0.00 0.00 65 978.3
20260505022600 69 114 0.0 4.0 0.00 0.00 0.00 65 978.2
20260505022057 69 202 0.0 4.0 0.00 0.00 0.00 65 978.2
20260505021554 70 149 3.0 6.0 0.00 0.00 0.00 64 978.1
20260505021051 70 211 2.0 7.0 0.00 0.00 0.00 65 977.7
20260505020550 70 128 2.0 3.0 0.00 0.00 0.00 65 978.0
20260505020048 70 185 0.0 5.0 0.00 0.00 0.00 65 977.9
20260505015545 70 166 2.0 4.0 0.00 0.00 0.00 64 977.7
20260505015041 70 146 0.0 2.0 0.00 0.00 0.00 64 977.8
20260505014538 70 177 1.0 3.0 0.00 0.00 0.00 63 977.6
20260505014035 70 121 3.0 3.0 0.00 0.00 0.00 63 977.5
20260505013532 71 222 1.0 3.0 0.00 0.00 0.00 62 977.6
20260505013030 71 145 1.0 3.0 0.00 0.00 0.00 61 977.5
20260505012528 71 212 2.0 3.0 0.00 0.00 0.00 61 977.1
20260505012025 71 251 1.0 3.0 0.00 0.00 0.00 61 977.2
20260505011520 71 115 3.0 4.0 0.00 0.00 0.00 59 977.5
20260505011017 71 213 0.0 3.0 0.00 0.00 0.00 61 977.2
20260505010512 72 137 0.0 3.0 0.00 0.00 0.00 59 977.4
20260505010010 72 248 0.0 3.0 0.00 0.00 0.00 59 977.1
20260505005506 72 216 0.0 2.0 0.00 0.00 0.00 58 977.2
20260505005004 73 247 3.0 5.0 0.00 0.00 0.00 57 977.1
20260505004501 73 195 0.0 2.0 0.00 0.00 0.00 57 977.1
20260505003957 73 149 0.0 5.0 0.00 0.00 0.00 57 977.1
20260505003455 73 52 2.0 4.0 0.00 0.00 0.00 56 976.9
20260505002950 74 230 0.0 4.0 0.00 0.00 0.00 56 977.0
20260505002446 74 230 0.0 2.0 0.00 0.00 0.00 56 977.1
20260505001945 74 181 0.0 3.0 0.00 0.00 0.00 54 977.1
20260505001442 74 192 0.0 3.0 0.00 0.00 0.00 54 976.8
20260505000939 75 205 0.0 3.0 0.00 0.00 0.00 52 976.8
20260505000437 75 225 1.0 3.0 0.00 0.00 0.00 52 977.0
20260504235934 76 254 2.0 5.0 0.00 0.00 0.00 50 976.8
20260504235431 76 190 2.0 4.0 0.00 0.00 0.00 51 976.9
20260504234927 76 109 1.0 6.0 0.00 0.00 0.00 49 976.7
20260504234425 76 234 1.0 9.0 0.00 0.00 0.00 50 976.8
20260504233921 77 229 3.0 7.0 0.00 0.00 0.00 48 976.8
20260504233417 78 135 1.0 3.0 0.00 0.00 0.00 49 976.8
20260504232914 78 209 1.0 7.0 0.00 0.00 0.00 49 976.8
20260504232411 78 221 2.0 7.0 0.00 0.00 0.00 48 976.7
20260504231908 79 230 1.0 5.0 0.00 0.00 0.00 48 976.7
20260504231404 79 204 2.0 7.0 0.00 0.00 0.00 48 976.8
20260504230901 79 204 5.0 9.0 0.00 0.00 0.00 48 976.8
20260504230358 80 223 1.0 10.0 0.00 0.00 0.00 46 977.0
20260504225857 80 282 3.0 7.0 0.00 0.00 0.00 47 977.0
20260504225353 80 249 4.0 9.0 0.00 0.00 0.00 45 976.8
20260504224851 81 262 7.0 12.0 0.00 0.00 0.00 45 976.9
20260504224347 81 238 3.0 8.0 0.00 0.00 0.00 45 976.8
20260504223844 81 219 2.0 14.0 0.00 0.00 0.00 45 976.8
20260504223339 81 247 3.0 9.0 0.00 0.00 0.00 45 977.0
20260504222836 81 183 0.0 5.0 0.00 0.00 0.00 47 977.0
20260504222333 80 167 2.0 7.0 0.00 0.00 0.00 46 976.7
20260504221832 81 202 3.0 15.0 0.00 0.00 0.00 46 977.0
20260504221328 81 179 2.0 8.0 0.00 0.00 0.00 46 976.9
20260504220825 82 243 4.0 10.0 0.00 0.00 0.00 47 976.9
20260504220322 80 178 0.0 9.0 0.00 0.00 0.00 47 976.9
20260504215819 80 227 8.0 16.0 0.00 0.00 0.00 47 976.9
20260504215315 80 336 3.0 7.0 0.00 0.00 0.00 47 977.1
20260504214811 80 182 3.0 7.0 0.00 0.00 0.00 47 977.1
20260504214308 80 138 5.0 13.0 0.00 0.00 0.00 47 977.1
20260504213805 80 178 3.0 6.0 0.00 0.00 0.00 47 976.9
20260504213301 79 242 2.0 9.0 0.00 0.00 0.00 49 977.1
20260504212758 80 224 3.0 8.0 0.00 0.00 0.00 48 977.2
20260504212254 80 252 5.0 5.0 0.00 0.00 0.00 46 977.4
20260504211752 80 196 3.0 11.0 0.00 0.00 0.00 46 977.3
20260504211248 81 240 4.0 7.0 0.00 0.00 0.00 47 977.4
20260504210746 81 86 3.0 13.0 0.00 0.00 0.00 47 977.4
20260504210243 81 207 4.0 13.0 0.00 0.00 0.00 46 977.5
20260504205739 81 242 7.0 8.0 0.00 0.00 0.00 46 977.6
20260504205238 82 222 6.0 17.0 0.00 0.00 0.00 45 977.3
20260504204735 82 194 0.0 8.0 0.00 0.00 0.00 46 977.7
20260504204233 81 257 1.0 12.0 0.00 0.00 0.00 46 977.6
20260504203733 81 227 7.0 11.0 0.00 0.00 0.00 45 977.6
20260504203230 81 201 3.0 13.0 0.00 0.00 0.00 45 977.6
20260504202729 80 216 2.0 14.0 0.00 0.00 0.00 48 977.8
20260504202227 82 199 2.0 14.0 0.00 0.00 0.00 49 977.9
20260504201724 82 145 1.0 7.0 0.00 0.00 0.00 47 978.0
20260504201221 80 209 3.0 9.0 0.00 0.00 0.00 47 978.1
20260504200718 81 232 3.0 7.0 0.00 0.00 0.00 45 978.1
20260504200214 81 237 4.0 14.0 0.00 0.00 0.00 46 978.1
20260504195711 81 121 2.0 11.0 0.00 0.00 0.00 46 978.2
20260504195207 81 196 2.0 7.0 0.00 0.00 0.00 48 978.2
20260504194704 81 223 3.0 8.0 0.00 0.00 0.00 46 978.1
20260504194200 81 113 1.0 7.0 0.00 0.00 0.00 46 978.2
20260504193656 80 215 2.0 10.0 0.00 0.00 0.00 49 978.2
20260504193154 80 110 3.0 13.0 0.00 0.00 0.00 48 978.4
20260504192652 80 123 3.0 11.0 0.00 0.00 0.00 48 978.5
20260504192150 80 25 3.0 12.0 0.00 0.00 0.00 49 978.4
20260504191648 80 156 3.0 10.0 0.00 0.00 0.00 49 978.5
20260504191144 80 142 3.0 14.0 0.00 0.00 0.00 48 978.3
20260504190640 80 110 3.0 8.0 0.00 0.00 0.00 50 978.4
20260504190137 80 125 5.0 15.0 0.00 0.00 0.00 47 978.5
20260504185633 80 233 4.0 13.0 0.00 0.00 0.00 46 978.6
20260504185130 80 266 4.0 11.0 0.00 0.00 0.00 47 978.5
20260504184626 80 189 2.0 13.0 0.00 0.00 0.00 46 978.5
20260504184121 79 233 4.0 15.0 0.00 0.00 0.00 48 978.5
20260504183619 80 199 5.0 13.0 0.00 0.00 0.00 46 978.4
20260504183116 79 197 2.0 13.0 0.00 0.00 0.00 47 978.5
20260504182614 78 241 3.0 11.0 0.00 0.00 0.00 49 978.6
20260504182111 80 234 4.0 8.0 0.00 0.00 0.00 47 978.4
20260504181608 80 249 5.0 9.0 0.00 0.00 0.00 48 978.6
20260504181106 80 260 4.0 9.0 0.00 0.00 0.00 49 978.5
20260504180605 79 156 6.0 11.0 0.00 0.00 0.00 49 978.5
20260504180103 79 218 4.0 9.0 0.00 0.00 0.00 47 978.8
20260504175600 78 234 2.0 12.0 0.00 0.00 0.00 50 978.6
20260504175057 78 183 2.0 10.0 0.00 0.00 0.00 49 978.4
20260504174555 78 214 5.0 11.0 0.00 0.00 0.00 49 978.8
20260504174051 78 235 5.0 9.0 0.00 0.00 0.00 49 978.9
20260504173548 78 216 7.0 16.0 0.00 0.00 0.00 48 978.8
20260504173046 78 287 5.0 16.0 0.00 0.00 0.00 48 978.9
20260504172541 77 236 3.0 8.0 0.00 0.00 0.00 49 978.8
20260504172038 78 198 2.0 7.0 0.00 0.00 0.00 53 979.1
20260504171535 79 23 1.0 6.0 0.00 0.00 0.00 50 979.1
20260504171032 77 148 3.0 9.0 0.00 0.00 0.00 50 979.2
20260504170528 76 213 5.0 18.0 0.00 0.00 0.00 50 979.0
20260504150912 73 201 8.0 16.0 0.00 0.00 0.00 51 980.2
20260504150409 73 229 1.0 9.0 0.00 0.00 0.00 54 980.3
20260504140835 69 336 1.0 5.0 0.00 0.00 0.00 57 980.9
20260504140331 68 224 5.0 15.0 0.00 0.00 0.00 56 980.9
20260504130800 66 206 2.0 7.0 0.00 0.00 0.00 60 980.9
20260504130256 65 107 2.0 12.0 0.00 0.00 0.00 61 980.8